Regional Weather Roundup
Issued by NWS Green Bay, WI

Home | Current Version | Previous Version | Text Only | Print | Product List | Glossary On
Versions: 1 2 3 4 5 6 7 8 9 10 11 12 13 14 15 16 17 18 19 20 21 22 23 24 25 26 27 28 29 30 31 32 33 34 35 36 37 38 39 40 41 42 43 44 45 46 47 48 49 50
000
ASUS43 KGRB 180710
RWRGRB

NORTH-CENTRAL AND NORTHEAST WISCONSIN REGIONAL WEATHER ROUNDUP
NATIONAL WEATHER SERVICE GREEN BAY WI
100 AM CST THU DEC 18 2014

WIZ005-009-010>012-018-019-180800-
NORTH CENTRAL WISCONSIN

CITY           SKY/WX    TMP DP  RH WIND       PRES   REMARKS
IRONWOOD       CLOUDY    23  19  86 NE3       30.25S
MANITOWISH WTR CLOUDY    21  20  97 NE5       30.23S
ARBOR VITAE    CLOUDY    23  20  89 CALM      30.23S
EAGLE RIVER    CLOUDY    21  20  93 NE7       30.22S
LAND O LAKES   CLOUDY    21  19  93 NE7       30.23S
RHINELANDER    CLOUDY    21  18  88 NE3       30.23R
PHILLIPS       CLOUDY    20  17  88 E3        30.26R
ANTIGO         CLOUDY    22  19  91 N6        30.22S
TOMAHAWK       CLOUDY    21  18  88 CALM      30.25R
MERRILL        CLOUDY    23  20  88 N3        30.25S
$$

WIZ013-073-180800-
NORTHEAST WISCONSIN

CITY           SKY/WX    TMP DP  RH WIND       PRES   REMARKS
IRON MOUNTAIN  CLOUDY    24  18  77 N12       30.22R
MARINETTE      CLOUDY    27  21  80 N8        30.23S
OCONTO         CLOUDY    27  23  86 NW5       30.25S
$$

WIZ017-030-035>037-045-180800-
CENTRAL WISCONSIN

CITY           SKY/WX    TMP DP  RH WIND       PRES   REMARKS
MEDFORD        CLOUDY    21  19  90 NW3       30.24F
WAUSAU         CLOUDY    24  18  77 N5        30.25R
MOSINEE        CLOUDY    23  23 100 NW5       30.26S
MARSHFIELD     CLOUDY    20  15  81 NW8       30.26R
WISC RAPIDS    CLOUDY    20  13  74 NW5       30.29R
STEVENS POINT  CLOUDY    20  16  84 W5        30.27R
WAUPACA        CLOUDY    24  18  75 W7        30.28R
SHAWANO        CLOUDY    28  22  78 W3        30.26S
CLINTONVILLE   CLOUDY    27  21  80 W5        30.26S
$$

WIZ038-039-048-051-180800-
FOX VALLEY

CITY           SKY/WX    TMP DP  RH WIND       PRES   REMARKS
NWS GREEN BAY  CLOUDY    27  21  78 NW7       30.26R
APPLETON       CLOUDY    23  19  86 W9        30.27R
OSHKOSH        CLOUDY    22  16  78 W7        30.27R
FOND DU LAC    CLOUDY    22  15  75 CALM      30.27S
$$

WIZ022-050-052-180800-
EAST CENTRAL WISCONSIN

CITY           SKY/WX    TMP DP  RH WIND       PRES   REMARKS
STURGEON BAY   CLOUDY    28  21  74 N10       30.23S
MANITOWOC      CLOUDY    25  21  85 W9        30.26R
SHEBOYGAN      CLOUDY    23  17  78 W9        30.26R
$$

LMZ563-521-522-541>543-180800-
LAKESHORE

STATION/POSITION TIME  TEMP    WIND        PRES    VSBY  WAVE
                       AIR SEA DIR/SP/G                  HT/PER
                 (UTC) (F)     (DEG/KT/KT) (MB)    (MI)  (FT/S)
SHEBOYGAN LKSHOR 0700   24 34  280/ 11/ 14 1026.1R
KEWAUNEE LKSHORE 0700   27     300/  4/  8 1023.0R
ALGOMA MARINA    0600          340/  8/ 12   N/A
NORTHPORT PIER   0700   29     350/ 15/ 22 1023.4R
SISTER BAY LKSHO 0600          350/ 19/ 23   N/A
CHAMBERS ISLAND  0700   29     350/ 15/ 18 1023.4R
MENOMINEE LKSHOR 0700   28     320/ 12/ 16 1024.4R
$$



USA.gov is the U.S. government's official web portal to all federal, state and local government web resources and services.